Regional Weather Roundup
Issued by NWS

Home | Current Version | Previous Version | Text Only | Print | Product List | Glossary On
Versions: 1 2 3 4 5 6 7 8 9 10 11 12 13 14 15 16 17 18 19 20 21 22 23 24 25 26 27 28 29 30 31 32 33 34 35 36 37 38 39 40 41 42 43 44 45 46 47 48 49 50
000
ASUS42 KKEY 290810
RWRKEY

FLORIDA REGIONAL WEATHER ROUNDUP FOR THE FLORIDA KEYS
NATIONAL WEATHER SERVICE KEY WEST FLORIDA
400 AM EDT MON AUG 29 2016

...SOUTH FLORIDA AND THE KEYS...

CITY           SKY/WX    TMP DP  RH WIND       PRES   REMARKS
FORT MYERS     CLEAR     77  74  90 E7        29.89S
SW REGIONAL AP CLEAR     77  74  90 E6        29.89S
NAPLES         CLEAR     78  75  90 E9        29.87S
MIAMI          LGT RAIN  78  76  94 E8        29.88F
WEST KENDALL   CLOUDY    79  76  90 E8        29.88F
HOMESTEAD      CLOUDY    79  76  90 E3        29.87F
MARATHON       LGT RAIN  82  75  79 SE9G20    29.84F
BOCA CHICA NAS MOCLDY     2  32 100 MISG      29.82F
KEY WEST INTL  PTCLDY    82  76  81 SE21      29.83S

...INTERNATIONAL WEATHER...

CITY           SKY/WX    TMP DP  RH WIND       PRES   REMARKS
NASSAU BAHAMAS NOT AVBL
CANCUN MEXICO  PTCLDY    75  75 100 W3        29.81F
COZUMEL MEXICO PTCLDY    73  73 100 CALM      29.83F

ADJACENT COASTAL WATERS...

STATION/POSITION TIME  SKY/WX   TEMP    WIND        PRES    WAVE
                                AIR SEA DIR/SP/G            HT/PER
                 (UTC)          (F)     (DEG/KT/KT) (MB)    (FT/S)
PULASKI SHOAL LI 0800            82     140/ 23/ 25 1008.9F
SAND KEY         0750            82     160/ 23/ 27 1010.0F
LONG KEY         0700            83 85  140/ 16/ 18 1011.2F
FOWEY ROCKS      0800            80 85  110/  5/  6 1012.3F

$$



USA.gov is the U.S. government's official web portal to all federal, state and local government web resources and services.